Theta_e
305 306 305 305 305 305 306 306 306 306 306 305 306 305 305 306 305 305 305 306 306 306 306 305 305 305 305 306 305 306 306 306 307 306 305 304 304 304 305 305 305 306 307 308 308 309 310 310 310 311 309 310 314 313 313 309 313 326 327 320 317 317 314 310 309 308 313 316 313 311 313 313 311 310 307 305 306 307 307 307 307 305 304 302 301 302 302 301
305 305 305 305 305 305 306 306 306 306 306 305 305 305 305 305 305 305 305 305 306 305 306 305 305 305 305 306 305 305 305 306 306 306 305 304 304 304 305 305 305 306 307 308 308 309 312 311 308 308 308 311 313 313 312 310 311 317 318 318 317 315 311 306 306 306 308 313 313 311 312 311 310 310 306 305 309 308 308 308 306 306 305 301 299 300 301 300
306 305 306 305 305 305 306 306 306 306 306 305 304 304 304 305 305 305 305 305 305 305 306 305 305 305 305 305 305 305 305 306 307 305 305 304 305 305 305 305 305 306 306 308 308 309 312 311 308 308 309 312 312 313 314 312 313 314 315 317 315 312 308 304 306 306 305 308 310 311 310 308 308 307 305 306 310 309 308 308 307 307 305 302 298 298 299 298
306 306 306 306 306 306 306 306 306 306 305 304 304 304 304 305 305 305 305 305 305 305 305 305 305 305 305 305 306 305 306 311 309 304 305 305 305 305 305 305 305 305 306 307 308 309 310 310 309 308 311 314 314 314 313 310 311 315 317 315 310 308 307 305 305 305 305 305 306 309 308 307 307 305 305 306 307 308 308 307 307 308 306 302 298 297 298 297
306 306 306 306 306 306 306 306 307 306 305 304 304 304 305 305 305 305 305 305 305 305 305 305 305 305 305 305 306 306 309 316 311 304 305 305 305 306 306 306 305 306 306 307 308 309 310 309 308 309 312 314 317 315 310 307 309 313 312 308 306 307 307 305 304 305 306 305 306 308 307 306 306 304 305 306 305 308 311 311 310 310 307 303 298 296 296 296
306 306 306 306 305 306 306 306 307 306 305 305 305 304 305 305 305 305 305 305 305 305 305 305 306 305 305 306 306 308 312 315 308 304 305 305 305 306 306 307 306 306 307 308 308 309 310 309 309 310 312 313 315 313 308 306 310 313 309 305 305 306 306 305 304 304 304 306 306 307 306 305 306 306 307 307 306 307 311 314 314 311 307 302 298 296 297 296
306 306 306 306 305 306 306 306 306 306 305 305 305 305 305 305 305 305 306 306 306 305 305 305 305 305 305 305 307 311 313 310 305 304 305 304 305 306 307 307 307 308 308 308 308 309 309 310 310 311 315 315 313 312 310 309 312 315 310 305 305 305 305 305 304 304 303 305 304 304 303 304 305 306 306 306 305 306 307 308 307 306 305 302 300 297 296 296
305 305 306 306 306 306 306 306 306 305 305 305 305 305 305 305 304 305 305 305 305 306 305 305 305 305 305 305 310 314 310 306 304 304 305 305 305 305 307 308 308 308 308 308 308 309 309 309 309 310 316 316 313 315 313 312 315 316 310 305 304 304 304 304 304 303 303 304 303 303 303 304 304 303 304 303 303 304 303 304 305 306 306 305 305 302 298 296
305 305 305 306 306 306 306 306 305 305 305 305 305 305 305 305 304 305 304 305 305 306 305 305 305 304 305 305 310 314 308 304 304 305 305 305 305 305 306 307 307 308 308 308 307 308 309 309 308 309 313 311 313 317 313 315 317 312 309 306 304 303 303 303 303 303 303 303 303 302 303 304 304 302 303 303 303 303 303 304 306 308 309 308 307 306 301 297
306 306 305 305 305 306 306 305 305 305 305 305 304 304 305 305 304 304 304 305 305 306 305 305 305 305 306 307 311 314 308 304 304 305 305 305 305 305 306 306 307 308 307 307 307 308 308 308 307 308 311 311 314 314 311 317 317 310 310 308 305 304 304 304 303 303 303 303 303 303 303 304 303 303 305 306 305 305 304 305 304 306 308 307 307 306 301 299
306 305 306 306 305 305 305 305 305 305 304 304 304 304 305 305 305 305 305 305 305 306 305 305 305 305 306 308 311 311 306 303 305 305 305 305 306 305 305 305 306 307 307 306 306 306 307 307 307 310 314 312 311 311 311 314 311 308 309 309 308 305 303 303 303 303 303 303 304 303 302 302 301 303 306 306 306 306 305 305 304 304 306 305 306 306 301 300
306 305 306 305 305 305 305 304 304 304 305 305 305 304 304 305 305 305 305 304 305 306 305 305 305 306 308 310 309 307 304 304 304 305 305 305 306 306 305 305 305 306 307 306 306 306 307 306 310 316 315 311 312 312 311 309 307 308 307 311 311 306 305 305 303 304 303 303 304 304 307 306 302 305 309 306 304 306 305 305 305 305 305 305 304 305 302 300
306 306 306 306 306 305 305 304 304 304 305 305 305 304 304 304 304 305 304 305 304 305 306 305 306 307 311 312 307 303 303 304 304 304 305 305 306 306 305 305 305 305 306 306 307 307 307 307 311 313 312 316 316 311 309 306 307 309 308 313 312 309 313 308 303 304 302 304 305 305 311 312 306 307 310 306 304 304 304 304 305 305 304 304 304 304 303 300
306 306 306 306 306 305 305 305 305 305 305 305 305 305 304 304 305 305 305 305 304 305 306 306 307 308 311 311 304 303 304 304 305 305 304 305 306 306 305 305 305 305 305 306 306 306 307 307 308 311 311 315 313 309 310 307 308 311 310 317 314 313 320 310 303 305 303 304 306 306 311 313 309 308 308 307 305 304 305 305 305 304 303 304 305 304 303 301
306 306 306 306 305 305 305 305 305 305 305 305 305 305 305 305 305 305 305 307 306 306 305 307 310 310 312 310 303 304 305 304 305 305 304 305 305 305 306 305 305 305 305 305 306 305 306 306 310 314 310 309 312 316 317 310 310 311 312 324 321 314 318 311 305 306 304 304 305 307 314 315 310 308 308 306 305 304 305 305 303 304 303 303 304 303 303 302
306 306 306 306 305 305 306 305 305 305 305 306 305 305 305 305 306 305 306 308 307 306 305 308 310 310 312 309 304 305 305 305 305 304 305 305 304 305 305 305 306 306 305 305 306 305 305 309 312 312 309 310 316 324 327 322 319 315 313 321 319 312 314 313 309 306 305 305 305 306 311 313 310 306 307 306 304 305 305 303 303 304 303 302 303 303 303 302
306 306 305 305 305 305 306 306 306 305 305 305 305 306 306 308 309 307 306 308 308 306 305 308 308 310 312 306 304 305 304 305 304 305 306 305 305 305 304 305 306 305 305 305 305 305 306 308 309 310 313 314 319 325 326 329 329 322 318 318 318 315 311 313 314 308 305 306 307 307 307 311 309 306 307 306 304 305 304 303 303 303 304 304 303 302 301 301
306 305 305 305 305 305 305 306 307 306 305 305 305 307 309 312 312 309 307 307 310 307 305 309 309 313 314 306 303 305 305 305 304 305 305 306 305 305 305 305 304 305 306 306 305 306 307 310 312 314 314 312 322 329 318 320 328 323 321 318 317 318 311 312 316 309 306 307 308 309 308 310 308 305 307 306 303 304 304 302 303 303 303 303 301 301 300 300
305 305 305 305 305 304 305 307 307 306 305 305 307 310 313 315 313 311 307 308 318 318 311 312 313 313 315 308 304 304 304 304 304 304 305 306 304 305 306 304 305 306 307 311 308 308 311 315 316 318 322 318 321 326 318 320 326 320 319 316 313 316 312 312 315 309 306 306 310 311 310 311 307 305 307 305 302 303 304 303 304 303 301 301 300 300 300 301
305 306 305 305 305 304 306 308 308 306 305 307 311 314 317 320 322 320 314 310 315 315 313 314 312 309 309 306 304 304 304 304 304 305 305 305 304 307 306 305 307 306 309 315 312 311 312 314 318 324 333 326 315 317 316 316 316 313 314 314 313 315 313 313 313 309 306 307 314 314 310 310 306 304 306 304 302 303 304 304 303 301 300 300 300 300 300 300
305 306 305 305 305 304 306 307 307 306 306 309 312 316 318 318 323 323 317 314 310 306 309 312 307 305 305 304 305 303 303 304 304 304 305 305 305 307 308 308 309 310 314 316 315 317 314 315 325 325 322 316 310 311 311 310 311 311 312 311 313 314 312 313 311 309 306 306 314 314 308 309 306 303 305 303 303 303 303 302 301 300 300 299 300 300 300 300
306 305 305 305 305 305 305 307 308 306 306 309 311 316 314 310 312 311 309 314 312 306 308 308 305 306 304 304 305 303 303 305 305 305 304 305 308 307 311 314 312 315 318 315 316 322 321 323 323 314 309 310 310 309 309 310 310 310 311 309 312 315 314 313 310 309 307 305 312 313 307 306 305 304 304 303 303 303 302 302 300 300 299 299 300 300 300 299
306 305 305 305 305 304 305 307 309 307 307 307 308 311 309 307 307 306 307 315 315 311 311 310 308 308 306 305 305 304 306 306 306 307 302 306 311 308 312 316 314 316 317 317 317 316 319 320 313 308 308 309 309 309 309 309 310 311 311 310 314 316 312 313 313 309 308 308 309 308 306 307 306 304 302 302 303 303 301 301 301 300 300 300 300 299 299 299
305 305 305 305 305 305 306 308 308 307 308 308 307 307 307 307 306 306 313 320 317 313 310 308 307 307 307 304 303 305 307 306 306 306 302 305 310 309 311 313 313 316 317 319 316 313 316 311 305 307 308 308 309 311 310 308 314 318 312 309 315 313 307 310 313 308 308 312 308 305 310 311 306 302 302 302 302 302 301 301 301 300 300 300 299 299 299 299
305 305 305 305 305 305 307 310 307 307 311 309 306 307 307 308 306 306 314 319 318 315 311 309 307 306 305 303 305 306 306 307 305 303 302 302 306 312 315 311 310 315 318 316 312 315 315 306 305 309 308 308 308 311 313 311 312 315 310 308 310 309 306 308 311 308 309 313 308 305 312 316 308 302 302 302 302 301 301 301 300 300 299 299 299 299 299 299
305 305 305 305 305 304 308 313 308 308 315 311 305 307 306 306 306 307 313 319 322 319 315 313 308 306 306 306 306 305 308 310 304 301 302 302 304 310 314 313 311 313 315 312 310 312 310 305 306 309 309 309 309 311 314 312 310 310 308 306 306 306 305 307 307 307 309 311 307 304 309 315 311 305 302 302 302 302 301 301 299 299 299 299 299 298 298 298
306 305 305 305 305 304 308 310 306 309 316 311 306 307 305 306 306 307 314 320 320 317 315 314 309 306 308 307 305 307 311 311 305 303 302 302 305 307 310 315 314 315 313 309 312 312 308 307 307 307 309 310 311 311 309 309 311 310 307 304 305 305 304 306 305 305 309 309 306 306 306 309 311 308 304 302 302 302 301 300 299 298 299 300 299 298 297 297
305 304 305 304 305 306 307 307 306 309 311 308 307 307 306 306 305 309 320 317 313 314 313 314 310 305 307 307 306 310 312 310 309 307 302 300 305 307 311 315 313 315 314 307 311 314 308 309 310 308 309 310 312 308 305 306 307 309 308 304 303 303 303 305 304 306 308 305 308 310 305 306 312 308 302 301 302 302 301 300 300 300 300 300 299 298 296 296
304 304 305 303 306 309 306 307 308 308 307 306 307 307 306 305 306 317 327 315 312 316 313 314 311 307 311 311 310 312 310 309 310 307 304 302 304 307 311 315 313 313 312 309 312 314 308 307 310 309 307 309 308 304 305 306 304 306 306 304 304 304 303 304 303 306 305 305 313 314 306 308 313 306 301 302 303 302 301 300 300 300 300 300 298 297 296 295
304 304 305 304 306 307 307 311 310 306 306 306 306 306 306 309 314 324 323 314 315 318 313 314 313 312 316 314 314 315 310 310 311 308 310 308 306 308 308 309 312 312 313 313 313 312 308 306 307 307 307 306 303 301 304 305 303 304 303 305 308 307 304 304 305 305 305 310 315 311 306 308 310 307 303 303 304 303 301 300 300 300 299 299 297 297 296 295
304 304 305 305 305 305 309 312 308 305 306 305 305 307 310 318 325 322 314 311 316 317 314 315 315 316 315 310 311 316 313 313 314 311 311 312 312 315 312 308 311 318 324 321 315 312 309 307 307 306 305 304 302 303 306 307 304 303 305 307 309 309 306 306 308 307 309 317 314 306 305 306 309 310 304 301 303 303 302 300 299 299 298 298 297 297 297 297
304 304 304 304 304 304 306 308 306 305 306 305 307 312 319 326 327 319 314 313 313 312 311 310 312 314 312 310 310 312 312 311 313 311 309 312 314 311 310 308 307 316 325 319 314 315 312 309 306 305 304 303 304 307 311 311 307 306 309 309 310 314 312 309 311 311 313 316 310 303 304 305 307 306 302 301 301 301 301 300 299 298 298 297 297 297 297 297
304 304 304 303 304 304 304 305 304 305 305 306 313 322 326 324 318 312 314 314 309 308 309 308 312 313 311 313 313 309 308 308 310 311 307 311 315 308 306 309 306 309 313 310 310 313 315 311 306 307 306 303 303 306 308 308 306 305 306 307 312 314 309 309 313 312 312 313 306 302 303 307 307 301 300 301 300 300 299 299 299 298 297 297 298 298 298 297
304 305 304 304 304 304 304 304 304 305 304 310 323 330 324 317 311 308 311 314 310 310 312 310 312 314 311 310 310 307 307 308 308 310 312 315 317 311 310 311 308 307 309 310 308 307 311 313 308 307 306 303 303 304 302 304 305 305 304 306 312 312 307 309 312 309 312 313 308 303 304 310 308 301 300 301 299 299 298 298 299 298 297 298 298 298 297 296
305 305 307 308 305 304 305 304 304 305 305 319 334 330 319 313 309 308 311 312 310 310 311 310 309 312 315 311 308 306 304 307 309 309 313 314 311 310 309 306 305 306 308 311 309 305 309 312 307 303 301 301 303 303 300 302 305 304 303 305 310 311 309 309 310 308 307 309 310 308 306 304 302 300 300 300 298 298 298 298 298 298 298 299 298 297 295 294
305 306 309 309 304 304 305 304 305 305 311 331 339 324 315 311 307 310 311 308 308 306 308 314 312 312 316 313 311 308 302 305 310 309 309 310 307 307 307 304 302 304 305 307 309 307 309 312 307 301 301 299 299 301 301 302 304 303 304 306 305 304 303 305 308 308 305 306 308 309 306 300 299 300 299 298 299 298 297 298 297 297 297 297 296 295 294 293
304 306 309 309 305 304 304 305 306 307 318 335 333 316 312 309 305 310 312 307 305 304 307 314 312 308 310 311 312 310 304 305 309 307 307 309 307 305 307 306 302 301 301 303 309 307 305 310 308 303 304 301 297 299 301 300 301 302 304 305 303 301 302 304 307 308 308 308 307 308 309 304 303 303 299 298 299 297 297 297 296 295 295 294 294 293 292 292
305 308 311 308 304 304 305 306 306 311 328 335 324 312 311 310 307 308 310 307 306 307 308 310 309 307 306 307 311 310 306 307 310 308 307 308 307 303 304 305 302 301 300 300 306 307 303 308 308 302 303 303 298 299 303 301 299 301 302 301 301 303 306 307 307 308 309 308 308 311 311 307 307 307 301 298 298 296 296 295 294 294 293 292 293 292 291 290
308 313 317 309 303 305 305 305 308 320 334 331 320 313 311 312 309 306 306 306 306 307 309 307 306 308 308 307 309 310 307 307 308 308 306 306 307 303 301 303 303 303 302 300 303 306 304 306 307 304 301 302 300 301 307 306 301 301 301 301 302 304 307 308 306 307 308 306 307 310 309 309 309 306 300 297 296 295 294 294 293 293 292 292 292 291 290 289
308 314 317 307 303 305 304 307 316 329 329 318 314 314 311 312 310 306 305 306 308 306 307 308 307 309 311 309 307 307 307 307 307 307 306 305 306 305 302 301 305 306 304 302 301 304 305 304 308 308 302 301 304 304 306 308 305 305 305 304 304 303 306 308 305 305 305 305 307 308 307 307 304 298 296 295 295 294 293 293 293 292 292 291 291 290 289 288
309 317 315 306 304 304 309 314 315 319 320 313 312 315 314 312 310 309 307 306 308 305 303 308 308 307 309 310 309 306 306 308 308 307 307 305 305 306 302 298 301 303 302 303 302 303 304 304 306 307 304 304 307 301 300 302 304 308 309 308 309 308 308 307 305 306 305 305 306 306 306 305 298 294 295 294 294 294 293 292 292 292 291 290 290 290 288 287
315 320 312 307 304 304 318 325 314 314 321 315 310 313 314 311 308 309 309 306 307 305 304 307 308 307 307 307 308 307 305 308 308 307 307 306 305 306 302 298 299 300 299 302 302 300 301 301 302 304 304 303 302 298 298 299 300 302 303 303 305 308 308 306 306 308 305 303 304 303 304 303 296 294 294 294 294 294 292 291 290 290 290 289 289 288 287 287
317 317 311 307 304 307 320 325 319 321 318 308 307 310 310 309 308 308 307 307 307 306 306 308 306 306 306 305 305 306 305 305 307 307 306 307 306 304 301 299 299 298 299 303 303 299 299 301 302 306 307 304 301 298 298 298 298 300 302 302 301 304 307 306 305 305 304 304 303 301 304 301 295 294 294 295 295 293 291 290 289 289 289 288 288 287 286 286
316 314 313 308 303 311 320 317 317 320 313 308 311 310 307 308 309 308 308 307 307 305 305 307 306 305 305 305 305 306 305 304 305 306 304 304 305 301 300 300 298 298 300 303 302 299 301 304 304 306 308 308 308 305 304 304 303 301 301 302 302 303 304 302 302 302 302 303 301 301 305 302 295 294 294 293 293 292 290 289 288 288 287 287 286 286 285 285
314 312 315 312 305 311 318 315 314 316 314 313 312 309 309 309 306 306 307 306 305 304 304 306 305 304 305 305 305 307 307 304 304 305 303 303 304 302 301 300 298 299 301 301 300 299 301 305 303 304 307 307 308 308 308 308 305 303 301 300 301 301 300 300 302 303 303 302 300 302 306 303 296 294 292 291 290 289 288 288 287 287 287 286 286 285 285 285
312 311 316 322 318 313 313 313 315 315 312 312 310 308 309 309 306 304 305 306 305 304 304 304 304 304 305 306 308 310 310 305 303 305 305 305 306 303 301 300 300 300 301 301 299 298 301 304 303 304 307 306 305 305 305 303 301 301 302 301 301 301 300 301 303 302 303 302 300 300 301 299 296 294 292 290 289 288 287 287 286 286 286 286 285 285 285 285
313 312 311 314 320 319 315 315 318 316 309 308 308 307 307 308 308 305 304 306 305 304 305 305 304 305 306 307 307 308 309 307 304 304 304 303 304 302 300 299 300 300 300 300 299 298 300 304 304 303 305 304 303 302 301 300 299 299 300 301 304 302 299 300 302 301 301 300 300 298 296 297 296 293 290 290 288 287 287 286 286 286 285 285 285 285 284 284
310 311 306 303 310 315 312 311 315 316 312 308 307 307 309 310 309 307 306 305 304 304 305 306 306 307 308 307 306 306 308 308 307 306 303 301 302 302 302 300 300 300 299 298 298 298 300 304 303 301 303 303 301 300 300 298 298 299 299 300 303 303 300 299 301 301 298 298 299 298 295 295 294 291 289 289 288 286 286 286 285 285 284 285 284 283 283 283
309 311 307 303 307 310 307 306 311 316 315 311 308 309 310 310 309 307 305 306 308 306 304 305 308 308 308 307 305 306 308 306 306 306 303 300 301 302 303 301 299 299 298 297 297 297 299 305 305 301 302 302 300 301 301 300 301 300 299 300 302 303 302 300 300 300 298 298 298 295 294 294 291 289 288 288 287 286 285 285 284 284 284 284 283 283 282 282
313 313 309 310 312 309 307 306 310 316 314 310 310 309 309 310 310 308 305 306 310 308 304 305 308 308 309 307 305 306 307 305 305 305 303 301 302 302 302 300 299 299 298 297 297 296 297 303 304 300 302 304 302 302 303 302 302 300 299 299 300 301 300 298 298 298 297 298 296 293 294 294 290 288 287 286 286 285 285 284 284 283 284 283 282 282 281 280
305 305 307 316 315 307 308 310 309 314 315 312 312 310 309 311 309 307 306 304 305 307 306 306 307 308 308 306 305 307 306 304 305 303 301 300 301 300 299 298 298 299 300 299 298 298 298 301 303 301 302 304 303 301 301 300 300 301 299 297 297 297 297 296 295 294 294 295 294 294 294 293 289 287 286 286 286 285 285 284 283 283 283 283 281 281 280 279
304 303 304 314 314 306 309 312 311 313 310 308 310 309 308 309 307 306 307 305 305 305 304 304 305 306 307 307 306 305 303 302 301 299 297 298 298 298 298 298 297 298 301 301 299 299 299 299 301 301 302 305 304 301 300 299 302 304 299 294 294 295 294 294 293 292 292 292 293 294 293 290 287 286 285 285 285 285 284 283 283 283 282 281 281 280 279 278
Wind_Speed
6 6 6 6 6 7 6 6 5 5 4 4 5 4 4 4 4 5 6 7 7 8 8 10 11 12 10 7 8 7 8 5 6 15 14 10 16 16 15 13 12 11 9 11 11 12 13 11 7 8 7 3 1 1 2 2 3 4 3 3 1 1 0 1 1 1 1 3 3 4 5 6 3 3 0 0 1 2 2 3 4 4 3 2 8 13 19 27
5 6 5 5 4 5 5 5 4 4 4 4 4 3 3 3 3 3 5 6 7 9 10 11 13 12 10 8 8 8 9 7 4 9 12 15 18 15 13 11 10 10 9 9 10 10 8 7 11 11 6 2 1 1 1 2 3 3 2 2 2 3 1 1 2 1 1 3 5 5 6 5 4 4 2 1 4 3 4 5 3 6 4 3 11 19 25 28
4 5 5 5 4 3 3 4 4 4 5 6 6 5 4 3 2 3 4 6 7 9 10 12 12 11 11 10 9 8 7 5 2 4 11 16 15 13 11 9 8 7 8 8 9 10 6 9 14 10 3 1 2 1 2 3 2 2 3 3 4 5 2 3 3 2 2 3 5 5 5 3 3 4 3 3 5 3 6 6 3 7 8 6 9 18 25 26
3 4 4 4 3 2 2 3 3 3 5 7 8 6 5 3 3 3 4 5 7 9 10 11 10 11 12 12 10 5 1 5 2 4 12 14 13 12 8 6 6 5 7 7 8 9 10 13 14 6 2 2 3 3 3 2 1 2 3 3 5 2 3 2 2 3 3 2 3 4 3 1 3 4 4 4 3 5 7 8 8 11 11 10 9 14 21 21
2 3 3 3 3 2 1 2 3 3 5 7 8 6 5 4 4 4 4 6 8 9 10 10 9 11 13 10 6 2 4 4 3 6 12 14 13 10 7 6 5 5 5 6 8 10 12 12 7 2 2 1 3 4 2 3 3 2 1 4 2 2 3 2 2 2 3 3 3 4 3 2 1 2 4 5 4 6 5 7 9 10 8 10 12 14 16 16
2 2 2 2 2 1 1 3 4 3 5 7 7 6 4 4 5 5 5 6 8 9 10 10 9 11 12 7 3 3 4 1 4 8 12 13 13 9 7 7 6 5 5 6 9 11 10 7 1 0 1 2 2 3 2 4 4 2 2 1 3 2 3 2 1 2 3 5 3 2 1 2 2 3 4 7 9 10 6 6 7 7 7 12 16 14 12 12
3 2 1 1 1 0 2 3 4 4 5 7 8 6 3 3 5 6 6 7 8 9 10 10 10 10 10 6 3 4 3 2 4 8 11 13 11 8 6 6 7 7 6 7 9 7 4 5 3 2 3 3 2 3 1 4 4 4 2 1 2 3 3 2 2 1 2 2 2 1 2 2 3 5 3 6 12 11 7 7 6 6 9 13 14 13 12 14
5 3 2 1 0 1 2 3 3 4 5 8 8 6 3 2 4 5 7 8 9 9 10 10 11 10 9 4 1 3 2 2 5 8 11 11 10 10 7 5 9 8 5 5 6 4 2 5 3 2 4 1 2 2 1 3 4 3 2 2 1 3 3 4 3 1 1 2 3 1 3 6 6 4 5 10 13 10 8 8 7 7 8 8 9 10 11 13
6 5 4 2 1 1 2 3 3 5 6 8 7 5 4 4 5 6 8 9 9 9 9 10 11 9 7 2 3 2 2 2 3 7 9 10 11 10 7 8 11 7 2 4 6 7 3 2 3 2 3 2 3 3 1 3 0 1 2 2 2 3 3 5 2 4 4 3 2 2 5 8 6 4 7 12 13 10 7 7 7 6 6 5 6 7 8 9
5 5 5 4 3 2 2 4 5 6 7 8 7 5 5 5 6 7 8 10 10 9 9 9 10 8 6 3 3 1 2 1 3 6 6 9 11 10 9 10 13 8 4 5 7 7 3 1 2 1 4 2 2 2 1 3 3 2 3 1 3 5 4 5 3 4 4 3 3 4 7 8 5 2 5 8 7 4 5 5 5 6 6 5 5 6 7 8
4 4 4 4 3 3 4 5 6 7 8 9 8 6 6 6 7 8 9 10 10 10 8 9 9 8 5 2 2 2 2 0 3 6 7 9 9 10 10 11 13 9 4 5 7 6 3 2 3 2 2 1 1 1 0 2 2 2 4 3 1 4 2 3 3 4 2 2 4 4 6 5 1 3 7 8 4 3 6 3 2 4 5 6 6 6 6 8
3 4 4 4 3 4 5 6 6 7 9 10 8 7 6 7 7 9 10 10 10 10 8 8 8 7 5 4 2 2 1 1 2 5 8 9 8 7 8 8 10 9 3 3 5 6 6 5 4 4 1 2 2 1 1 2 1 2 5 2 4 2 2 4 3 2 2 1 4 2 4 2 3 7 11 8 4 3 6 3 3 4 4 5 6 5 5 8
3 3 4 4 5 5 5 6 7 8 9 9 8 7 7 7 8 9 10 10 11 10 8 8 8 6 4 3 1 1 2 2 3 5 7 9 8 5 4 6 7 8 5 3 3 5 7 6 5 6 2 4 2 1 1 1 2 1 2 3 2 5 5 5 3 1 2 1 3 2 3 4 6 11 12 7 5 5 5 3 5 5 5 5 5 4 3 5
3 4 4 5 5 6 6 7 8 9 9 9 8 7 7 7 7 7 8 9 10 9 8 8 8 5 3 0 3 2 2 2 4 7 8 9 9 4 2 4 5 5 4 3 2 3 5 5 7 6 2 3 2 1 3 3 2 1 1 1 2 1 4 5 1 2 1 2 2 5 2 6 6 9 11 7 6 7 5 4 4 3 2 5 5 5 3 3
4 4 5 5 6 7 8 9 9 10 9 9 8 6 7 7 6 6 8 10 9 8 7 6 6 3 3 1 2 1 2 3 4 9 9 10 10 6 5 6 7 6 3 2 2 1 2 3 4 4 1 2 3 4 3 3 2 1 0 3 2 2 4 6 2 3 3 3 2 5 2 6 7 8 8 4 6 7 5 1 4 5 5 6 5 4 3 3
5 5 5 6 8 9 10 11 11 11 10 10 9 7 7 7 7 7 10 12 9 6 5 4 6 3 2 2 1 1 2 3 5 9 8 8 8 7 11 11 9 7 8 6 2 3 2 2 3 2 2 2 4 5 3 3 4 3 2 2 4 2 3 5 4 1 4 1 2 1 2 5 6 5 6 3 5 6 6 5 6 7 6 6 5 4 2 2
5 5 6 7 9 11 12 12 12 11 10 11 10 9 9 9 10 9 10 11 6 2 1 3 7 3 2 1 2 2 3 3 7 8 6 7 8 9 11 8 6 6 7 7 3 3 2 2 1 0 2 2 2 5 5 3 4 4 2 1 4 3 2 3 4 3 2 1 2 2 3 7 9 5 8 8 3 7 7 6 6 7 6 6 5 5 6 8
6 5 6 7 10 12 12 12 11 10 10 10 10 11 11 11 10 6 9 9 3 1 2 2 5 3 0 3 2 3 5 6 9 8 6 6 7 9 9 6 6 9 5 3 2 0 1 1 2 1 3 3 2 5 3 3 4 3 2 2 3 3 2 4 5 2 2 1 3 3 3 10 12 5 7 7 5 10 7 7 7 7 7 7 8 9 9 10
5 4 6 8 11 13 14 12 10 10 10 8 10 11 8 6 3 2 8 9 3 2 1 2 2 2 3 4 3 7 10 9 9 6 4 7 9 10 8 6 6 4 3 1 1 1 1 2 3 2 2 2 1 5 6 7 7 7 5 4 4 5 4 5 5 3 1 1 4 6 4 9 12 6 6 6 5 10 7 7 7 6 8 9 9 9 9 10
4 4 6 9 12 14 14 12 9 9 10 10 12 9 4 5 4 2 7 7 2 2 2 2 1 1 3 3 5 11 10 7 4 1 5 13 12 8 4 3 1 1 1 2 2 2 2 3 2 3 4 5 4 4 5 4 5 5 3 3 4 5 6 6 4 3 1 1 5 6 3 9 11 5 5 4 3 8 8 8 8 9 9 8 9 8 9 8
3 4 7 10 13 15 14 11 9 9 9 10 11 7 2 2 2 2 4 4 2 3 3 4 3 2 2 2 5 9 5 2 2 2 10 14 6 2 3 1 2 2 3 3 1 2 4 2 5 6 5 5 3 2 3 2 2 2 2 2 4 4 5 5 2 4 1 1 5 3 4 11 10 6 4 1 5 6 7 9 10 11 9 7 8 8 8 6
2 4 7 10 14 15 13 11 10 10 9 9 8 6 4 3 2 1 1 2 4 3 3 4 2 1 2 1 4 7 2 1 3 3 13 14 2 1 3 2 2 3 3 1 1 5 4 2 6 4 3 3 2 2 4 3 1 0 1 1 3 4 4 4 2 4 2 1 5 4 5 10 9 7 3 5 8 5 7 10 10 11 10 8 8 8 7 7
2 5 8 11 14 15 13 9 10 11 11 10 8 6 3 2 1 2 2 1 4 2 1 2 1 2 2 0 4 6 1 1 2 3 12 12 3 1 1 2 2 3 3 2 1 1 2 3 4 0 4 3 1 1 5 4 1 1 2 2 4 4 2 3 4 4 3 2 4 4 6 7 5 5 6 6 7 8 10 11 9 9 10 8 8 7 7 8
3 6 9 12 14 15 11 7 9 11 9 8 8 6 3 2 1 1 1 0 2 1 1 1 1 1 1 1 4 4 1 0 1 3 9 8 1 1 1 0 3 2 2 1 3 2 4 3 1 3 3 2 0 2 3 2 2 3 3 4 4 4 2 4 4 4 4 4 3 2 5 5 3 5 5 4 6 9 9 10 10 8 8 8 8 8 8 8
5 7 10 13 13 15 9 4 8 10 6 4 5 4 3 2 2 1 1 2 2 2 1 1 1 1 2 3 4 1 1 2 1 3 6 5 1 1 0 1 1 1 4 1 2 3 5 3 1 2 1 1 2 2 2 4 1 4 2 5 5 3 1 3 4 5 5 5 2 3 3 5 4 4 6 3 6 8 6 9 9 7 7 7 8 8 7 7
6 8 11 13 13 15 7 1 8 11 4 3 3 2 2 2 3 1 2 3 2 3 2 1 1 2 3 3 2 1 1 2 2 3 4 3 1 1 1 1 1 1 4 1 2 2 2 2 3 3 1 2 3 2 4 5 4 3 3 5 5 4 1 4 3 4 1 3 3 2 1 3 4 0 5 5 8 7 6 8 8 7 7 7 7 7 7 8
7 9 11 12 14 14 6 2 9 8 2 3 5 3 2 3 4 2 2 4 2 1 1 1 1 2 2 2 2 1 0 3 2 2 2 2 2 1 1 2 1 1 2 2 2 2 0 3 3 3 3 3 2 1 3 5 6 3 4 4 2 1 3 2 2 1 3 3 4 1 4 3 4 3 4 6 9 7 6 7 7 6 7 7 7 7 8 8
7 9 10 11 13 11 6 5 7 4 2 6 7 4 4 5 5 2 3 3 2 0 1 2 1 1 2 2 3 2 1 3 2 1 2 2 3 1 1 2 1 3 2 3 2 5 0 1 1 3 4 1 2 3 3 3 3 4 5 3 2 2 2 1 3 2 2 2 5 4 4 3 4 3 3 5 8 7 6 7 6 6 7 7 7 8 8 8
7 9 10 12 11 8 7 6 5 4 6 7 5 4 5 5 4 2 4 1 1 1 0 1 1 2 3 4 4 3 2 2 1 2 1 2 2 3 1 1 2 2 3 3 4 5 0 1 4 5 3 2 4 4 2 2 1 4 3 1 2 1 1 2 3 2 2 2 4 6 3 3 3 3 4 2 5 6 5 5 6 6 7 7 7 8 7 7
9 10 11 12 9 8 8 5 5 8 8 6 5 5 5 3 2 4 3 1 1 1 1 1 1 3 5 6 4 4 3 2 2 3 2 2 3 3 1 0 3 2 3 3 2 4 2 1 2 3 2 4 2 3 1 2 2 1 2 3 4 3 2 3 2 3 4 2 5 6 5 4 1 4 5 2 3 7 6 5 5 6 7 7 7 7 6 7
10 10 11 11 9 9 7 4 7 9 7 6 7 5 2 2 3 4 1 1 1 2 2 2 3 3 6 5 3 4 4 4 4 4 4 3 4 6 4 2 3 4 4 5 3 4 4 3 0 1 1 2 2 2 2 2 2 3 4 3 4 4 3 4 4 4 3 3 6 4 2 4 1 4 4 1 1 6 7 6 7 7 7 6 6 6 6 6
10 10 11 12 10 10 8 5 8 8 6 8 8 3 3 3 3 1 2 3 2 2 2 2 3 3 4 3 1 4 4 4 4 4 2 3 4 4 4 2 2 4 4 3 4 5 3 1 2 2 2 1 3 2 5 5 5 4 3 4 4 4 4 3 3 1 1 5 4 2 3 2 3 3 3 3 4 6 6 7 7 7 7 6 6 6 6 6
9 10 10 11 10 10 9 8 10 8 8 9 6 3 5 4 1 1 2 3 1 2 1 1 4 4 3 4 3 4 3 2 3 3 1 2 4 2 2 2 2 2 1 2 3 5 4 4 3 2 2 2 3 2 2 2 3 3 1 3 3 2 3 4 4 2 2 4 3 1 2 2 2 1 3 5 6 6 6 7 7 7 8 6 6 5 5 5
8 9 9 9 10 11 10 10 9 8 10 8 4 5 6 2 1 1 2 3 2 3 2 1 4 5 4 3 2 4 3 2 3 4 3 3 4 2 3 6 6 3 1 2 2 1 1 3 2 1 1 2 1 2 3 2 1 2 2 4 3 3 2 3 3 2 3 4 3 2 1 3 1 1 4 5 6 6 7 6 6 7 6 6 5 5 5 5
7 8 8 8 11 11 10 10 9 9 9 5 5 5 4 1 2 1 2 4 2 4 4 2 2 4 5 2 2 3 2 2 4 5 4 3 2 1 2 5 6 3 3 2 2 0 1 4 3 1 0 2 0 2 2 3 1 2 1 3 1 3 4 2 3 4 3 3 4 2 1 1 1 1 2 5 7 6 6 6 7 7 5 5 5 4 5 5
6 7 7 7 10 11 10 10 9 9 7 4 6 3 1 2 1 1 1 2 1 3 6 5 3 4 5 4 3 4 2 2 3 4 3 2 2 1 1 1 3 4 3 2 2 1 1 4 3 1 2 1 2 2 1 1 1 1 1 0 3 4 4 1 4 3 2 2 3 2 2 1 2 1 2 6 7 6 7 7 7 6 5 5 4 4 5 5
5 5 4 6 9 10 8 8 8 7 4 6 5 1 2 1 1 2 1 1 1 1 3 4 2 2 3 3 4 5 4 2 3 3 2 1 1 2 2 1 1 1 1 1 1 0 1 4 4 0 1 3 2 1 2 2 1 2 1 3 2 2 3 2 1 3 4 1 4 2 4 3 2 2 1 4 6 6 6 6 6 5 5 4 4 4 5 5
5 3 2 5 9 9 7 7 7 5 4 6 4 0 1 0 0 1 1 1 1 1 4 1 1 1 2 2 4 5 5 3 3 4 2 1 1 1 1 1 1 0 2 1 1 1 1 3 6 1 1 3 2 2 3 4 1 3 2 2 1 1 1 1 1 1 2 2 4 4 3 3 4 4 4 4 4 4 4 5 5 5 5 5 5 5 5 5
5 3 2 6 10 8 7 8 6 5 5 5 2 0 1 0 1 1 1 0 0 1 2 0 1 2 2 1 2 4 4 2 3 3 1 1 2 1 2 1 1 2 4 1 1 2 1 0 5 3 1 2 3 2 1 3 3 2 2 2 1 2 3 1 2 2 1 3 4 4 4 2 4 4 7 5 4 5 4 5 4 4 5 5 5 5 5 6
4 2 1 8 11 9 8 7 5 5 5 3 1 1 1 0 2 3 2 1 0 1 1 1 1 2 2 2 1 2 2 1 2 1 0 1 2 1 2 2 2 4 5 3 1 2 2 1 4 5 3 2 2 1 3 3 1 1 2 1 2 1 1 1 1 2 2 2 2 3 4 2 3 1 7 7 5 5 5 5 4 5 5 5 5 5 5 7
4 3 2 9 12 8 6 5 4 4 3 2 1 0 1 1 1 3 2 1 0 1 1 2 1 0 1 2 2 2 2 2 2 1 1 1 2 1 0 1 1 3 4 4 2 2 1 1 3 4 4 3 3 4 4 4 4 3 3 3 3 2 1 1 4 2 2 2 3 2 4 3 3 4 6 7 5 5 5 5 5 5 5 6 6 5 7 8
4 2 3 10 12 8 5 4 2 2 3 2 1 0 0 1 0 2 2 1 0 0 1 1 1 0 0 1 2 2 2 2 2 1 1 0 1 1 1 0 2 1 1 1 2 1 0 1 1 4 5 4 6 5 3 3 4 3 2 2 3 3 3 3 4 4 1 1 2 2 3 3 1 3 5 6 5 5 5 5 4 5 5 5 6 6 7 7
3 1 3 10 12 6 5 4 4 3 2 1 1 0 0 1 1 1 1 2 1 1 2 1 0 0 0 1 1 2 1 1 1 1 1 1 1 2 1 3 3 1 1 1 2 1 1 1 1 4 5 4 4 4 3 2 1 1 1 0 1 1 3 5 4 3 1 3 1 1 3 3 2 3 5 4 3 4 4 4 5 5 5 5 6 7 7 7
1 2 2 9 12 5 4 3 2 2 2 1 1 2 1 1 1 1 1 2 1 1 1 0 0 1 1 1 1 2 2 0 1 1 1 1 1 1 2 3 2 1 1 1 1 2 2 0 1 3 5 6 6 5 5 4 2 0 2 1 2 3 4 3 1 3 1 4 4 3 4 3 4 4 5 4 3 4 3 4 4 4 5 6 7 7 7 7
2 1 2 7 11 7 4 3 4 2 1 1 3 2 2 2 1 1 1 1 1 1 1 1 1 0 1 0 0 2 2 2 2 2 2 1 2 1 2 3 0 1 1 2 1 1 1 2 1 1 2 4 4 4 3 3 3 2 1 1 1 3 3 1 0 2 1 4 2 4 4 3 2 2 3 4 4 4 5 6 6 6 8 9 8 7 7 8
2 2 3 5 8 7 3 0 4 4 1 2 2 2 2 2 2 1 1 1 1 0 0 1 1 1 1 2 2 3 3 2 2 2 2 2 3 2 2 2 1 2 2 3 1 1 1 1 2 4 5 5 5 6 4 1 3 6 5 4 2 2 3 4 3 2 3 2 3 4 3 4 4 5 8 9 9 10 10 10 10 10 11 10 7 6 7 7
2 1 1 2 4 4 4 4 5 3 1 2 1 1 2 2 2 1 1 0 1 1 0 0 0 1 0 2 2 3 3 2 1 1 1 2 3 3 2 2 1 1 1 2 1 2 3 3 3 3 6 6 5 8 8 4 5 8 7 5 3 3 4 6 3 5 3 1 5 4 2 7 6 5 7 8 8 9 9 10 10 10 10 7 5 6 8 8
2 1 1 1 1 1 3 4 3 4 3 2 2 1 2 3 3 1 1 1 1 1 1 1 2 1 2 2 1 2 4 4 2 1 2 2 3 4 4 2 1 1 3 3 1 3 3 3 3 1 5 8 7 9 10 6 5 7 6 6 4 5 5 6 6 6 4 2 7 5 5 8 5 5 6 6 7 8 8 7 7 9 10 7 6 9 11 12
2 2 1 1 1 2 1 2 2 4 5 3 2 1 1 2 2 2 1 1 3 2 1 0 3 5 3 1 2 0 3 3 3 3 1 2 3 3 3 2 1 1 3 2 2 2 3 3 3 1 5 10 8 9 8 5 5 5 5 5 5 7 7 7 5 4 4 6 7 6 9 7 1 4 6 5 5 6 6 7 10 13 12 9 10 12 12 14
2 2 0 3 3 0 0 1 2 4 3 3 2 1 0 1 1 2 1 1 1 3 2 0 4 6 5 1 2 2 4 3 3 5 2 1 3 1 1 1 1 1 2 1 2 2 1 2 2 1 2 8 7 6 5 3 5 6 4 5 2 1 1 2 1 2 2 4 6 8 9 6 1 4 7 6 7 8 9 11 13 13 10 9 11 12 13 14
3 3 3 4 2 2 1 1 2 4 3 3 1 1 1 1 2 2 1 1 1 1 0 1 4 5 4 2 1 4 5 5 5 7 5 3 3 2 2 2 2 1 3 0 0 2 1 1 3 4 3 6 5 4 7 6 6 4 5 9 8 5 4 2 1 2 3 5 7 7 6 4 3 6 7 7 8 10 10 11 13 12 9 9 11 14 15 14
3 1 2 5 2 1 1 2 3 3 1 1 0 0 2 2 2 1 1 1 3 1 2 2 1 3 3 2 3 4 5 6 6 6 4 4 4 3 3 2 2 2 1 1 1 0 2 0 2 2 2 5 5 6 8 6 5 4 4 6 5 3 4 4 3 5 5 3 4 5 3 4 5 7 9 9 10 9 8 10 12 11 8 9 12 16 15 11
Wind_Direction
117 121 124 114 98 87 82 76 73 62 58 49 45 51 41 27 12 358 344 349 351 354 354 353 355 348 349 345 337 321 311 326 1 24 38 7 348 339 328 324 318 315 309 313 325 336 348 359 345 340 345 326 82 47 2 30 40 57 71 84 359 265 134 278 200 226 156 161 202 202 184 166 207 272 260 6 283 239 240 247 258 271 280 142 144 152 156 160
120 121 124 122 107 85 74 60 48 32 31 20 15 13 3 13 10 352 335 335 336 339 339 340 344 341 338 332 331 322 313 316 331 21 21 354 348 339 326 324 315 308 306 312 332 348 349 332 330 342 2 357 344 48 39 349 45 81 100 86 234 199 159 338 128 30 46 163 195 200 199 189 195 200 151 226 264 255 244 267 259 259 276 126 141 147 152 158
124 123 124 124 121 96 76 49 33 21 17 6 354 345 343 358 355 344 336 330 329 330 331 333 337 338 335 330 329 315 310 339 352 3 355 348 345 333 329 324 312 305 304 314 326 333 319 299 309 319 7 27 308 71 62 353 34 98 98 81 241 198 112 13 65 53 22 146 166 191 198 196 202 165 140 217 250 248 227 244 221 236 236 179 164 156 156 161
117 125 125 121 127 116 95 43 25 18 9 360 353 349 345 347 344 338 328 322 324 324 325 328 330 336 338 334 332 307 336 33 14 323 341 346 344 338 340 331 324 309 300 315 312 310 307 300 301 304 47 11 319 52 57 340 25 57 99 150 240 162 100 337 51 41 350 49 123 159 145 243 230 158 161 190 247 272 237 227 207 223 226 190 178 169 165 166
102 116 122 119 123 119 96 16 5 5 357 355 356 353 351 355 353 341 331 327 329 328 327 329 326 333 342 345 356 44 75 39 312 331 348 352 351 349 357 355 348 322 307 317 305 306 305 291 289 325 61 14 346 40 10 307 90 53 82 157 258 70 120 230 110 36 338 22 72 123 132 262 263 158 191 181 217 248 225 215 200 207 219 185 178 175 170 172
91 106 114 113 109 111 4 346 345 344 343 352 356 351 354 10 16 6 355 350 345 338 330 330 325 328 339 350 16 32 73 103 302 347 355 359 359 359 14 17 25 7 342 329 313 311 306 295 283 14 93 77 55 101 294 313 90 97 271 105 6 55 132 200 132 360 7 47 62 139 198 296 327 285 233 199 224 234 211 195 181 172 161 158 169 171 170 180
74 99 124 135 131 257 322 328 327 331 339 349 351 345 335 358 15 13 3 355 349 342 335 333 327 324 329 330 324 355 86 170 320 356 360 5 8 9 25 33 32 8 331 319 317 315 327 7 41 133 92 71 99 127 271 326 65 103 210 245 30 84 115 154 146 343 28 46 224 158 351 309 255 278 283 234 239 242 236 229 212 179 144 140 154 169 181 189
64 79 105 149 249 288 303 310 318 329 336 341 342 335 306 317 352 360 359 348 343 339 334 334 334 334 330 321 19 15 51 257 323 1 2 10 21 21 28 37 16 345 316 329 338 343 357 27 27 86 81 101 125 104 328 5 35 85 170 208 114 105 139 150 137 188 253 273 236 116 309 256 234 259 287 261 257 256 244 243 230 182 152 145 149 169 183 192
60 69 75 78 54 339 310 311 319 322 327 333 337 324 297 304 325 342 349 344 345 340 333 334 338 349 342 330 95 39 295 240 333 353 2 13 24 26 31 29 10 356 19 18 17 30 45 64 22 67 115 170 108 90 40 71 36 198 151 175 162 156 162 149 160 213 215 250 211 187 252 256 254 263 277 263 262 266 239 237 234 182 170 171 153 171 177 185
57 59 63 65 55 22 337 323 320 322 329 335 337 326 305 307 315 324 334 340 347 343 334 333 334 347 346 344 73 46 256 164 6 354 4 9 17 25 33 27 12 21 76 40 29 39 56 112 319 97 124 103 83 114 106 119 183 192 120 84 144 166 179 164 207 237 215 250 228 213 247 260 258 240 273 269 264 254 192 220 228 168 177 176 158 184 187 185
51 48 48 43 27 357 339 329 328 332 338 341 338 327 310 307 312 315 322 330 341 345 337 336 338 336 338 12 107 204 242 194 10 11 3 356 5 11 18 17 8 21 73 60 41 35 40 3 343 44 105 79 73 92 72 159 167 127 110 33 340 183 212 186 223 258 207 271 247 235 268 265 205 193 239 251 256 157 147 185 202 161 182 169 165 179 189 200
38 39 31 21 9 349 344 340 338 341 343 343 335 324 313 305 308 311 313 316 329 345 338 339 348 332 347 48 132 211 319 354 348 10 1 348 344 344 8 12 7 19 37 77 54 40 35 3 29 73 113 149 121 70 258 208 116 93 109 67 310 321 291 228 213 235 145 250 256 263 333 330 176 223 244 243 233 156 130 170 226 222 211 161 158 160 182 205
19 21 12 3 359 351 349 344 336 337 341 344 335 324 316 307 312 314 313 310 317 332 331 334 339 331 14 53 283 320 19 7 350 355 356 341 328 319 360 4 3 17 24 76 90 64 44 22 88 112 115 110 134 172 135 112 83 44 100 109 19 9 312 243 187 130 129 255 303 14 342 292 230 237 259 255 208 146 124 214 247 249 225 160 140 140 177 195
6 4 357 351 348 345 342 337 331 332 338 344 339 326 317 314 321 329 329 320 314 317 320 329 329 332 50 189 281 356 4 360 353 346 344 332 335 330 304 328 337 354 17 56 78 84 53 39 89 101 62 91 146 149 55 15 51 62 343 60 82 73 283 273 201 121 107 275 18 66 241 266 270 264 265 240 184 147 157 243 289 299 195 148 135 140 168 174
358 351 348 344 341 341 338 335 331 330 333 338 341 333 326 324 323 334 340 332 320 304 301 328 338 353 51 309 281 38 356 358 343 338 337 328 339 333 305 309 303 308 308 328 11 23 11 24 77 90 41 32 74 77 36 350 6 67 72 323 340 167 260 294 289 149 168 263 54 91 236 275 288 285 267 203 157 147 149 333 23 48 88 120 135 145 168 183
355 351 348 346 348 350 343 338 332 326 327 332 336 331 326 326 317 318 330 333 327 292 281 343 349 7 69 305 301 10 336 352 339 334 328 323 331 317 316 314 290 280 267 265 307 296 310 47 71 112 130 46 77 89 47 21 346 343 114 263 276 263 292 309 305 197 160 263 330 147 234 280 282 290 294 257 182 147 105 67 66 67 77 104 127 136 131 86
357 356 355 0 4 1 349 342 332 323 323 325 327 324 317 315 310 311 327 334 330 278 224 357 344 8 95 319 326 322 315 331 330 332 326 322 326 315 318 315 299 307 275 256 281 295 300 60 89 154 81 49 106 98 51 13 313 316 21 274 265 261 290 302 293 308 58 72 266 238 208 257 272 289 306 297 193 129 102 94 81 72 75 86 92 80 69 70
359 6 13 19 14 5 354 344 335 327 325 324 327 323 315 312 308 318 341 340 341 100 116 360 3 52 66 327 325 310 318 315 315 324 328 326 323 312 305 287 299 331 331 260 254 256 309 14 85 44 12 2 37 88 80 257 218 221 250 271 294 295 281 267 261 287 33 67 243 267 250 265 282 304 320 325 98 114 114 108 88 83 79 68 71 70 74 79
359 26 36 27 14 5 358 352 346 341 338 340 342 332 327 340 348 24 8 11 46 93 113 299 25 123 261 306 323 319 311 299 307 315 331 339 327 313 297 271 275 316 1 9 265 212 148 28 50 47 311 261 199 138 178 213 182 183 203 191 231 272 279 263 252 236 113 44 267 251 245 274 292 329 352 342 89 109 108 102 90 82 73 70 75 76 82 82
10 50 37 22 11 5 5 6 5 358 357 2 358 354 9 20 30 357 358 22 76 154 141 230 193 160 296 306 324 333 319 286 293 298 349 340 320 317 322 263 278 15 236 197 236 264 94 52 290 225 220 214 205 173 172 182 159 163 177 194 231 248 272 268 260 261 168 86 264 241 249 280 288 333 343 312 84 101 103 98 87 80 77 80 83 80 82 84
48 52 24 14 8 6 9 13 18 12 6 9 11 25 88 59 37 315 324 347 266 207 187 233 211 195 290 279 324 350 349 277 282 302 352 346 317 323 358 19 33 333 259 193 171 358 67 73 250 220 198 185 174 116 103 122 125 126 170 233 275 250 257 265 238 268 288 75 272 287 330 288 291 321 299 221 95 95 104 97 90 90 89 85 83 82 79 79
75 31 13 8 3 3 7 14 22 19 16 23 39 69 110 111 108 217 263 323 285 232 226 270 259 248 277 268 340 0 24 310 315 324 352 355 31 135 331 21 40 272 280 12 27 4 24 238 240 218 147 119 80 62 83 92 126 122 170 177 283 261 269 298 310 299 326 109 277 327 339 293 302 333 346 102 101 92 92 97 101 101 96 90 87 84 78 73
53 8 6 1 358 1 4 18 23 20 26 37 56 76 90 90 138 197 135 307 287 288 299 319 15 315 323 341 344 359 27 340 303 308 352 359 24 94 3 30 354 282 326 18 144 355 331 245 232 81 73 94 359 25 87 63 11 240 203 167 261 281 315 289 294 304 287 241 269 322 327 298 319 28 47 68 94 92 88 93 94 97 100 101 99 93 86 82
4 355 357 355 356 359 4 29 26 16 24 40 56 69 66 35 291 224 109 214 280 315 311 247 190 281 329 296 328 358 35 351 221 287 351 11 7 333 129 87 358 337 312 49 127 193 238 247 219 53 46 112 165 339 95 95 326 282 205 194 244 277 275 238 272 314 319 314 302 350 341 318 350 88 84 51 80 87 84 90 84 82 93 94 93 84 78 82
346 348 352 354 356 358 3 47 23 7 2 31 51 59 53 13 300 274 81 50 329 313 317 319 335 328 307 308 314 299 201 332 248 283 345 19 355 336 115 212 42 337 269 323 25 274 255 272 77 82 21 95 114 292 237 162 258 313 241 199 200 185 252 285 329 359 6 337 326 49 13 315 337 95 124 95 84 85 77 90 88 79 82 81 81 75 66 66
339 344 349 352 353 357 7 59 2 356 348 19 20 14 33 323 295 310 85 56 341 300 335 339 331 332 322 329 310 206 109 318 255 280 342 11 326 131 94 312 55 219 249 300 356 278 272 355 63 116 145 66 82 288 262 150 114 313 239 187 171 145 291 305 351 26 9 274 275 75 141 258 313 358 154 125 100 94 82 87 90 88 85 83 84 78 69 60
335 340 347 350 352 359 17 350 341 345 348 342 323 304 283 277 286 299 54 38 345 293 3 303 295 346 309 302 331 103 323 303 292 305 332 358 333 139 164 307 11 271 254 59 354 279 146 25 32 83 95 65 70 297 278 128 115 261 221 168 180 250 298 292 90 122 232 274 306 278 155 189 287 266 183 133 105 96 90 90 91 95 91 89 89 82 75 66
336 341 349 352 353 2 15 350 340 345 329 317 310 286 253 267 285 309 73 50 326 42 56 287 301 331 292 315 22 79 282 317 31 288 278 6 347 72 109 280 180 274 305 95 274 270 154 53 221 125 81 37 209 233 273 108 120 246 214 191 251 256 253 181 127 212 257 11 319 284 145 166 272 258 173 131 110 112 121 112 107 105 97 92 88 82 74 66
351 352 357 359 359 2 358 352 355 351 327 318 314 277 258 276 301 41 81 96 307 32 201 305 346 311 337 9 14 34 355 352 53 266 300 54 9 64 61 280 146 288 326 109 206 253 351 215 199 141 119 236 228 245 264 97 221 244 198 253 322 88 160 117 136 187 32 46 268 263 185 174 267 219 173 139 123 147 154 132 121 109 101 94 87 83 74 63
9 3 2 5 7 360 350 352 1 344 330 326 318 287 281 301 35 61 40 323 9 331 243 39 357 325 11 21 345 350 24 332 303 318 360 40 4 29 72 237 86 71 341 20 208 250 320 268 186 117 163 206 208 272 227 120 249 288 58 351 1 36 62 66 107 104 54 318 257 255 210 154 311 229 189 209 187 164 150 127 113 95 89 89 85 82 73 63
14 7 5 11 13 6 358 356 350 342 334 335 321 303 323 7 66 81 11 321 30 328 347 1 329 360 31 31 322 330 2 323 325 11 6 3 5 3 26 35 30 46 10 356 331 301 346 15 272 328 281 158 91 333 329 22 13 50 57 21 11 1 22 30 3 50 74 263 266 280 223 136 186 241 206 248 171 144 139 131 120 104 95 89 85 80 71 63
13 6 9 14 14 9 10 359 348 347 343 336 328 340 72 39 26 81 293 331 353 333 356 310 306 354 11 20 319 311 337 327 347 52 25 16 41 9 21 51 355 17 360 333 329 325 335 326 294 318 335 76 90 8 336 360 34 52 52 48 32 345 357 4 328 356 183 245 255 10 45 155 228 249 199 134 110 133 137 128 123 113 101 88 83 79 66 59
8 7 10 13 11 9 11 0 352 355 343 336 341 39 76 67 13 253 305 333 326 312 337 253 298 325 348 18 351 316 333 316 347 42 27 44 65 31 3 30 49 42 310 285 345 348 335 311 327 360 336 12 91 80 331 328 25 24 40 88 88 53 6 307 289 303 269 255 243 77 42 263 275 343 184 145 118 123 112 106 113 107 104 100 89 82 64 49
2 5 6 8 9 8 8 360 356 355 342 341 25 55 57 67 261 355 333 288 267 323 332 261 316 340 22 45 329 337 10 315 337 18 7 28 47 16 341 352 11 42 47 357 347 7 337 300 316 84 293 11 66 170 178 180 292 281 200 134 129 138 150 244 247 252 265 276 285 296 290 246 260 124 180 146 105 101 95 90 92 89 97 96 77 70 55 29
354 358 358 1 5 4 2 358 356 352 343 358 63 63 70 181 269 8 300 272 300 329 311 300 353 10 11 349 315 7 36 300 336 14 18 45 58 8 341 335 343 16 64 31 311 205 160 256 258 303 294 104 97 248 135 91 3 269 165 95 111 187 159 199 222 222 251 310 312 279 235 264 25 93 136 102 83 81 80 74 72 67 67 72 59 45 35 4
351 353 351 353 359 359 356 354 354 350 350 53 69 56 155 215 254 157 226 285 315 309 317 339 32 34 350 328 333 4 24 280 329 2 9 79 106 37 17 302 323 10 70 109 295 354 33 273 269 352 351 146 177 248 18 28 301 343 55 184 228 182 137 158 268 286 5 342 284 218 160 19 44 120 82 77 74 65 64 64 66 58 53 56 40 23 11 349
352 351 340 349 356 353 348 350 355 354 15 81 83 104 206 218 181 180 252 329 293 302 15 4 357 24 354 327 319 335 352 318 329 360 342 359 66 16 355 293 254 29 64 116 281 249 171 281 283 16 321 266 196 141 5 338 172 123 198 252 254 94 94 107 288 339 10 303 268 229 183 185 173 199 173 89 79 61 58 63 58 47 48 37 10 1 349 344
352 356 356 355 352 347 347 352 355 7 53 75 72 119 150 115 162 200 298 354 311 10 62 46 278 53 37 330 296 314 342 341 340 360 346 324 13 76 33 324 237 99 333 343 304 278 135 294 297 311 227 290 349 53 349 330 344 147 196 253 53 68 307 4 89 312 328 288 280 286 258 210 202 197 173 146 115 85 67 62 49 30 27 10 354 348 340 344
4 19 17 352 348 347 346 343 353 37 67 63 49 300 77 87 278 274 240 241 343 60 73 274 281 15 17 352 277 308 343 356 327 347 34 359 353 75 87 2 301 324 333 26 171 283 18 112 288 298 219 288 356 43 299 312 333 11 6 345 38 154 192 189 173 177 209 273 278 303 315 283 250 199 147 141 124 98 68 44 32 8 2 356 347 341 345 359
21 53 343 346 352 347 339 340 10 56 70 72 144 181 56 356 276 273 238 217 154 116 100 240 320 356 330 347 352 319 340 318 290 313 28 6 2 38 53 28 330 312 326 15 95 306 360 146 261 295 330 330 326 243 196 187 176 55 43 322 310 293 196 203 232 163 145 214 254 300 300 288 311 63 116 115 103 97 78 46 16 346 346 348 346 352 5 6
43 63 314 348 357 343 347 16 35 63 87 81 77 48 31 121 284 302 277 223 181 200 172 163 158 237 301 338 330 302 330 321 291 291 313 10 43 16 341 93 328 312 335 16 32 330 342 181 249 296 322 305 267 238 198 184 187 162 163 200 194 165 119 311 289 303 89 170 187 227 282 297 360 49 97 100 94 94 82 56 10 338 345 350 352 7 5 357
64 70 306 355 360 347 24 52 360 50 94 80 29 33 9 94 41 311 309 355 14 294 36 101 157 192 238 304 300 320 346 316 294 328 315 338 64 241 218 56 315 298 64 5 315 273 190 112 278 280 269 259 269 262 225 219 215 178 168 180 160 143 128 153 254 275 359 278 193 162 255 275 25 69 91 100 110 114 96 64 19 343 348 358 359 360 355 356
77 211 300 2 355 348 59 51 333 12 60 277 298 326 323 50 27 315 348 20 13 353 20 27 86 48 198 219 350 351 341 282 271 294 289 286 260 236 281 353 335 344 103 315 314 331 359 89 310 284 284 300 307 296 288 301 116 145 281 48 115 175 135 149 199 190 154 260 244 171 254 237 140 95 92 92 94 94 72 38 28 1 353 360 354 351 358 11
88 236 273 1 354 1 89 83 335 356 319 291 32 2 342 50 54 34 15 360 352 70 55 336 274 35 265 177 129 249 257 298 323 328 336 289 281 283 301 317 322 47 85 227 319 350 311 239 39 330 328 337 347 346 332 338 25 29 294 20 64 80 92 104 125 77 56 245 190 180 250 225 166 153 116 104 105 99 68 29 32 15 359 355 351 360 16 13
33 3 279 351 14 46 107 153 144 140 284 42 53 350 353 22 353 157 132 337 307 140 129 279 283 155 271 333 49 275 262 192 245 339 16 297 287 308 284 289 254 152 226 258 261 320 250 223 141 78 305 303 310 309 296 297 314 316 328 9 28 95 115 169 343 75 245 259 186 186 246 259 185 170 53 44 42 38 24 15 16 13 5 358 0 15 14 359
66 33 316 332 15 49 69 95 101 111 124 70 47 353 37 15 298 229 113 4 329 54 134 274 312 56 359 23 7 299 281 208 232 336 7 284 282 286 282 336 52 187 252 294 279 113 67 286 219 182 205 234 255 264 269 315 309 292 292 293 275 171 135 119 104 170 198 275 291 227 240 310 315 350 3 4 9 7 1 3 5 2 358 357 5 10 356 346
77 96 4 327 346 22 28 11 40 69 97 110 87 350 11 354 320 350 44 237 266 11 66 249 31 68 326 17 16 294 289 308 288 297 303 263 267 291 315 14 351 250 304 320 235 106 62 316 281 218 234 250 259 272 285 308 286 271 279 280 236 179 133 128 177 228 183 26 285 244 2 334 321 7 5 351 2 4 356 359 359 349 347 354 360 352 349 349
63 142 173 141 320 357 15 1 25 46 25 54 116 30 4 11 4 354 306 302 332 356 35 353 343 311 238 216 88 304 317 342 328 261 292 289 300 329 343 360 326 359 50 13 346 98 102 270 268 254 276 274 272 274 276 278 268 255 256 254 217 174 167 179 217 229 173 212 261 273 347 328 322 9 357 348 1 358 350 351 345 341 348 1 357 350 354 351
66 94 297 11 109 186 215 333 35 49 25 31 79 38 32 43 4 283 260 11 350 334 64 55 308 317 298 217 120 228 295 339 322 280 286 300 304 329 338 320 325 69 70 9 326 101 123 253 252 202 286 286 281 279 274 259 256 264 269 259 207 178 189 204 229 242 208 230 263 308 326 316 2 14 341 346 359 345 344 350 348 349 355 0 354 351 350 347
92 142 249 38 45 126 163 2 53 61 24 22 51 356 48 109 265 278 294 77 333 314 16 82 287 308 307 263 129 211 229 191 240 255 229 328 308 301 272 274 285 357 20 57 300 333 96 261 277 92 316 294 289 294 298 274 266 281 329 350 352 133 184 234 266 326 311 282 301 324 319 304 38 15 344 346 353 351 355 355 350 349 352 352 348 345 346 350
115 159 148 97 48 338 351 360 70 81 27 1 59 285 339 333 234 260 298 104 122 303 358 276 296 320 326 299 215 249 233 190 212 234 210 207 247 236 235 223 170 329 326 219 272 348 78 276 333 45 6 289 285 322 326 319 305 314 13 6 356 14 9 332 333 8 345 309 313 326 321 303 330 349 342 346 354 354 354 348 342 342 348 351 346 344 347 353
116 98 98 103 81 340 19 10 35 73 30 300 198 280 317 294 287 9 5 12 49 67 188 203 294 336 343 312 267 246 224 205 220 236 226 227 245 244 239 221 141 137 239 199 181 66 119 120 331 35 338 279 288 323 322 329 342 347 359 341 333 8 13 355 343 333 332 339 327 315 297 302 329 338 337 341 347 350 350 343 336 338 348 350 347 347 346 348